Theta_e
306 297 294 297 299 300 299 298 298 301 303 301 300 300 303 306 306 306 308 311 313 318 324 330 330 330 333 336 333 335 338 341 347 338 350 351 354 358 359 361 364 360 358 359
299 294 299 301 301 299 298 297 297 301 305 303 301 300 303 305 306 307 308 309 312 317 320 327 327 329 330 333 334 340 343 350 359 363 365 363 355 357 355 357 359 361 358 360
296 298 301 300 299 298 298 296 297 298 303 304 302 299 301 305 307 308 309 311 312 313 319 325 327 326 327 331 336 336 342 346 356 361 358 358 362 357 356 355 359 356 359 361
299 302 300 298 298 299 295 300 300 299 298 293 302 291 300 303 304 307 308 309 311 313 318 319 326 325 326 329 333 338 336 347 358 362 359 357 353 351 350 352 355 359 359 358
297 298 298 297 298 301 298 302 300 300 297 297 297 294 298 304 302 305 308 309 311 314 315 315 320 329 328 328 330 333 343 349 352 357 358 352 349 352 352 354 355 358 359 359
300 304 302 301 302 302 303 300 300 300 297 290 295 294 295 299 302 307 311 311 312 314 317 321 326 329 328 328 330 327 334 350 352 356 353 353 352 348 343 347 346 347 348 345
299 299 302 303 299 302 300 297 290 289 289 288 297 294 297 306 308 309 310 310 313 314 318 320 320 324 323 325 327 337 341 344 348 350 350 346 343 339 341 340 337 337 336 339
294 290 298 302 299 297 297 297 291 285 287 290 298 292 298 308 310 311 311 313 315 316 318 319 319 318 322 324 329 328 338 335 339 336 330 334 332 337 330 333 331 331 331 333
294 294 300 302 303 302 297 295 301 295 296 292 296 299 306 308 307 307 308 313 314 317 319 319 322 323 323 325 331 331 330 331 331 331 332 332 332 331 330 329 329 328 329 326
299 293 300 302 303 303 301 303 294 296 287 285 292 295 296 302 304 308 310 313 314 316 316 317 319 320 321 325 326 326 324 323 324 325 326 323 324 325 326 327 327 328 328 328
301 297 297 302 298 296 298 297 299 299 297 289 288 292 306 304 307 302 311 313 313 313 313 314 316 317 317 318 317 320 321 321 321 321 323 323 322 322 324 324 324 323 323 321
302 299 294 297 301 303 301 299 299 294 293 295 292 289 309 308 307 306 310 312 313 313 313 313 313 315 315 316 316 316 319 317 318 320 321 321 320 322 322 322 322 323 321 321
303 299 290 293 299 302 298 299 302 302 301 295 292 294 307 307 306 307 310 311 311 313 312 312 313 312 312 313 313 313 314 314 315 315 315 319 320 320 320 319 320 319 318 317
306 299 295 291 295 299 296 297 300 300 296 294 296 296 301 304 304 307 309 311 311 312 312 312 313 312 312 312 312 312 312 312 312 312 313 315 316 317 318 318 317 316 315 313
305 298 297 300 299 299 299 298 299 299 299 294 297 297 302 305 307 308 310 310 309 310 310 310 311 311 311 311 311 311 311 311 312 310 311 313 314 315 315 314 312 312 311 310
308 299 300 295 298 300 298 300 300 300 300 299 299 300 308 309 310 309 309 309 308 307 308 309 310 309 309 309 309 309 309 309 310 309 309 311 312 311 311 309 308 308 307 307
305 300 297 291 297 298 291 296 300 301 302 300 294 303 308 307 306 306 308 308 306 307 307 307 308 307 309 308 309 307 308 308 307 307 308 309 309 308 307 307 306 305 305 305
299 300 300 294 296 286 296 301 301 302 302 303 303 305 306 306 306 306 307 306 305 305 305 306 305 306 307 307 307 308 306 305 305 306 306 306 305 305 305 306 305 304 303 303
300 295 297 293 292 294 296 299 299 299 298 303 302 304 305 306 305 303 306 305 304 304 304 304 304 304 306 306 305 303 302 302 303 303 303 303 302 302 304 303 304 304 304 303
299 301 299 296 289 286 297 303 306 305 293 304 304 303 302 304 297 299 304 304 304 304 303 301 302 302 304 301 301 299 299 299 299 299 300 301 302 303 302 303 303 304 304 303
292 298 295 293 292 294 301 305 306 292 292 304 304 304 302 299 300 303 303 303 303 301 301 300 300 299 298 298 298 296 296 296 296 298 299 300 302 302 302 304 304 301 302 304
293 293 294 296 291 287 304 303 297 301 304 303 303 302 301 301 300 300 300 300 299 297 297 296 295 295 295 295 294 293 292 294 296 297 298 300 301 301 302 302 302 304 303 302
293 298 297 298 294 305 307 305 307 306 302 301 300 300 300 298 297 297 297 296 295 294 293 293 292 292 292 292 291 290 291 293 294 296 298 299 300 300 302 301 302 300 301 301
300 304 297 298 298 301 303 304 304 303 301 300 300 299 298 296 296 295 293 292 291 291 290 290 290 288 288 289 289 290 292 293 294 294 296 297 297 299 302 302 301 301 300 300
301 302 297 296 298 300 301 302 301 300 300 299 299 298 297 296 294 293 291 289 289 288 288 288 287 286 286 288 289 290 290 290 289 291 293 294 295 297 301 301 301 301 302 301
302 299 296 294 301 300 298 301 301 299 298 299 298 297 297 295 293 293 290 289 288 287 287 287 286 286 286 288 287 289 289 288 288 288 290 291 292 295 299 301 301 299 296 295
Wind_Speed
23 19 20 25 25 23 22 22 20 19 16 18 21 22 21 20 21 21 22 18 22 19 16 19 18 16 10 8 7 6 7 4 6 16 14 7 7 7 6 5 6 11 11 6
20 23 24 24 25 26 25 22 18 11 10 14 17 18 18 17 19 19 21 20 20 21 17 15 16 15 11 7 7 6 3 5 2 3 0 1 2 4 7 5 6 11 9 9
26 21 26 26 25 25 23 20 18 14 12 16 12 18 19 18 22 21 20 20 23 24 14 14 20 17 16 8 9 8 6 3 4 4 4 3 3 4 1 4 6 4 4 3
25 27 26 27 26 22 21 19 20 15 12 13 15 12 16 11 17 18 18 18 20 22 13 15 21 22 18 12 8 9 6 7 3 1 2 3 0 2 3 3 2 8 9 7
26 24 25 25 25 22 16 17 18 15 13 15 20 12 12 12 8 14 16 19 21 19 18 21 16 23 22 14 8 5 4 6 4 7 3 4 1 3 3 2 7 8 4 4
26 24 23 20 18 19 19 17 16 19 16 15 19 18 13 15 4 9 18 9 15 11 7 14 12 14 17 10 8 15 10 4 3 2 3 1 4 7 6 3 5 4 4 4
24 26 23 19 19 21 19 17 12 13 13 13 19 19 15 14 10 4 15 20 9 15 9 11 11 5 4 9 8 6 7 5 5 5 8 9 8 7 5 6 2 2 1 2
19 22 26 21 24 18 22 20 12 17 12 14 18 16 7 14 15 16 18 10 3 14 13 12 13 4 6 5 9 5 11 9 8 12 8 7 8 4 5 6 6 6 6 4
15 21 25 23 19 22 21 21 20 18 6 5 13 7 15 14 10 17 16 17 11 14 14 14 16 17 15 15 13 13 8 11 11 9 4 4 5 6 5 7 6 5 6 7
14 15 18 20 19 21 21 18 18 12 7 7 15 10 7 13 10 20 18 17 17 16 18 15 15 14 14 6 8 9 10 10 9 7 5 5 7 7 6 6 6 6 5 6
18 5 11 20 19 18 16 10 10 7 3 7 6 4 6 10 5 14 19 16 17 18 16 15 15 14 14 12 10 10 8 7 7 6 4 3 3 3 4 4 4 4 5 6
24 10 10 15 22 19 19 16 14 7 9 6 7 5 16 8 9 11 5 16 16 17 18 17 13 12 12 12 11 7 6 6 4 3 3 4 4 4 3 3 4 4 5 6
11 8 5 8 9 8 20 20 9 10 5 5 10 6 10 10 13 2 14 17 16 16 17 16 14 13 11 9 8 8 6 6 5 5 5 5 4 4 5 5 5 5 6 7
11 7 8 9 11 9 17 20 15 11 4 6 4 9 10 5 6 17 17 16 16 14 14 12 11 10 9 8 7 6 6 6 6 6 5 5 5 4 4 5 5 7 9 9
11 13 19 12 8 9 13 16 19 18 10 7 6 3 18 20 20 8 5 10 13 14 14 12 9 8 8 8 7 8 7 8 8 8 8 6 6 6 6 8 9 9 10 10
20 14 11 8 8 12 18 13 9 10 11 3 6 6 12 9 11 9 6 12 10 13 13 11 9 8 9 9 9 9 8 9 9 9 9 9 8 9 9 9 10 9 10 11
10 11 16 12 16 12 4 5 10 9 6 7 1 11 15 13 13 7 5 11 14 11 10 10 9 10 9 9 9 9 9 10 9 9 10 10 10 9 9 9 9 10 10 10
4 4 5 7 11 5 10 5 11 12 13 18 13 17 13 12 18 19 17 15 14 12 10 10 10 9 10 9 9 9 11 11 12 11 11 11 11 10 10 9 9 9 9 10
9 6 4 8 7 13 8 8 10 16 16 11 13 12 14 18 19 17 13 12 12 11 10 11 11 10 9 10 12 12 12 12 12 11 11 11 11 11 10 10 9 10 10 11
7 19 4 13 11 8 15 7 21 18 12 13 16 13 14 6 7 8 10 12 12 12 12 12 11 11 10 12 12 12 11 11 10 11 11 11 11 11 11 10 10 11 12 13
7 7 6 9 7 9 8 5 2 6 5 12 14 13 15 15 7 5 11 13 12 12 12 12 12 11 12 12 11 10 10 10 11 11 12 11 11 10 10 10 11 12 11 13
5 4 7 6 6 5 4 5 4 12 13 14 14 13 14 14 13 12 12 12 12 13 13 14 11 11 10 10 11 11 10 11 12 12 11 11 10 9 9 11 11 9 11 13
6 11 5 7 7 14 21 18 16 16 15 14 16 14 15 13 12 11 12 13 12 13 11 11 11 11 11 12 11 10 10 10 11 11 11 10 10 11 9 10 6 9 10 9
13 10 9 10 14 18 19 17 16 15 17 16 15 15 14 14 13 13 12 11 11 11 11 11 11 11 11 11 10 10 11 12 12 12 10 10 9 11 9 6 5 8 9 9
7 7 11 17 16 15 14 15 16 16 16 16 16 15 15 14 14 13 11 11 10 11 11 10 10 9 10 10 10 10 12 12 12 12 10 9 9 11 10 6 6 8 9 7
5 16 8 7 15 14 13 15 16 15 15 14 14 15 16 14 13 12 11 10 9 10 10 9 9 8 10 9 10 10 9 9 10 10 8 7 8 9 8 7 9 8 14 14
Wind_Direction
208 217 216 214 223 227 240 232 228 221 223 246 229 235 242 237 230 240 258 238 242 245 236 195 188 187 180 121 109 79 341 326 132 188 200 223 195 194 198 202 255 171 176 169
212 221 221 219 221 227 235 251 259 241 238 230 250 258 251 250 242 236 242 247 252 249 235 181 178 172 200 131 124 119 162 315 341 339 287 62 199 215 194 190 200 165 159 154
214 204 221 229 222 220 227 238 245 250 247 231 264 262 249 244 236 230 240 235 240 251 227 174 180 173 177 166 155 132 100 24 346 359 2 15 13 327 299 174 130 65 128 164
214 227 202 220 229 223 219 214 240 244 247 261 242 277 270 260 253 225 227 240 236 245 238 243 186 176 185 180 158 127 110 121 182 305 268 77 13 338 286 283 170 164 140 128
217 215 225 202 224 216 225 218 219 236 245 262 268 254 261 285 281 281 236 224 235 230 223 234 225 177 181 189 182 190 141 126 169 170 175 148 222 276 287 359 66 108 100 144
230 215 222 220 210 216 218 234 224 222 230 233 241 255 251 260 254 326 337 319 252 220 26 41 4 173 177 183 164 193 206 122 6 31 47 23 18 4 337 243 117 123 139 159
216 234 208 231 204 205 214 213 218 224 226 240 243 243 253 95 90 68 39 17 308 75 68 56 58 68 215 143 128 123 149 142 122 74 15 28 37 12 2 352 8 52 156 156
222 205 209 204 221 193 208 211 219 218 221 246 248 241 176 127 112 96 74 17 124 103 115 106 129 201 86 94 103 146 94 82 60 72 59 49 36 15 27 27 18 22 10 26
226 237 208 205 199 214 195 218 229 252 57 284 287 121 132 146 149 146 166 191 122 102 94 93 90 83 38 23 68 56 79 75 70 69 91 62 53 53 50 33 10 12 4 351
201 230 224 199 194 214 235 213 217 229 170 245 265 282 123 159 176 189 154 134 126 111 108 103 96 96 103 93 85 113 85 75 92 83 47 38 37 30 24 15 14 358 358 343
222 167 233 257 200 198 216 196 246 299 212 204 246 258 106 143 124 332 133 127 121 117 115 114 121 125 121 99 96 91 118 115 88 99 95 83 59 35 36 10 356 1 338 321
222 179 247 240 203 205 216 220 190 217 234 186 174 314 12 15 57 82 259 131 124 120 117 111 104 102 106 112 111 90 71 83 87 40 78 74 47 20 360 345 330 320 315 305
216 189 190 267 236 231 214 223 115 249 75 306 281 119 16 40 57 143 205 126 121 116 114 114 111 103 98 95 88 89 68 56 32 7 6 26 22 3 354 328 325 332 313 313
263 164 168 214 203 191 209 220 148 193 193 177 338 134 109 88 23 284 114 125 120 112 92 80 85 82 83 69 57 47 44 22 15 353 355 0 354 335 329 320 332 352 349 334
225 197 165 203 69 250 217 205 210 183 168 190 179 225 167 154 178 117 27 89 126 117 110 96 76 54 44 41 17 31 8 7 1 349 345 335 336 335 346 2 358 353 345 334
228 189 116 137 111 182 214 211 234 190 242 157 35 91 119 127 75 121 75 117 69 66 70 68 51 37 36 16 6 358 356 360 352 338 333 334 338 360 359 350 341 335 332 324
158 179 142 157 161 122 37 257 240 136 90 150 112 117 105 117 82 338 82 105 92 73 54 38 28 28 25 8 353 346 353 347 333 333 332 338 355 338 345 334 334 337 320 309
106 98 138 150 139 164 160 247 240 155 162 103 106 126 133 106 93 70 59 58 55 47 34 24 24 14 11 350 340 354 352 338 337 336 340 342 344 340 336 333 327 315 301 297
27 69 200 138 128 117 114 161 176 137 60 39 104 91 93 109 98 62 59 58 50 36 24 21 21 359 349 349 9 354 342 342 336 339 342 348 338 317 329 322 319 307 307 306
301 234 163 141 145 119 102 44 106 104 86 54 76 66 48 67 99 58 23 38 34 28 26 15 353 351 1 7 356 345 338 334 329 343 334 322 317 330 321 321 315 311 309 305
276 107 139 135 94 87 69 74 21 132 127 85 83 75 74 75 103 54 32 31 24 20 8 6 357 354 7 353 350 339 336 338 339 324 316 318 325 317 308 316 310 307 297 311
84 102 101 101 100 94 143 100 31 116 94 88 76 66 73 64 53 37 33 26 20 11 8 7 354 350 344 6 353 341 335 328 315 313 319 321 320 325 312 308 299 314 318 312
48 50 58 43 86 82 77 91 93 98 100 85 75 62 72 62 45 37 32 25 13 13 3 357 353 347 356 358 348 333 325 321 324 317 323 323 333 313 310 303 329 327 313 303
87 86 110 91 88 88 95 94 90 87 86 87 84 78 71 67 48 42 35 22 15 9 2 357 1 356 347 347 340 331 324 335 331 324 327 329 324 312 307 325 329 316 313 312
89 81 97 102 104 97 94 97 99 98 96 91 83 76 72 67 59 56 42 31 22 12 5 7 7 355 350 342 340 343 347 342 334 329 326 331 327 312 310 317 315 309 297 282
46 136 123 128 147 113 113 112 107 100 93 91 89 81 67 68 65 58 52 41 32 22 16 13 6 355 352 347 342 344 348 338 332 330 333 327 315 307 302 333 319 291 259 285